Regional Weather Roundup
Issued by NWS

Home | Current Version | Previous Version | Text Only | Print | Product List | Glossary On
Versions: 1 2 3 4 5 6 7 8 9 10 11 12 13 14 15 16 17 18 19 20 21 22 23 24 25 26 27 28 29 30 31 32 33 34 35 36 37 38 39 40 41 42 43 44 45 46 47 48 49 50
000
ASUS45 KBOU 040607
RWRCO

WEATHER ROUNDUP FOR COLORADO
NATIONAL WEATHER SERVICE DENVER/BOULDER CO
1200 AM MDT TUE AUG 04 2015

NOTE: "FAIR" INDICATES FEW OR NO CLOUDS BELOW 12000 FEET WITH NO
SIGNIFICANT WEATHER AND/OR OBSTRUCTIONS TO VISIBILITY.

COZ001>005-013-030-031-040700-
...NORTHWEST COLORADO...

CITY           SKY/WX    TMP DP  RH WIND       PRES   REMARKS
CRAIG          PTCLDY    56  53  90 SW9       30.18S
HAYDEN         CLOUDY    55  52  88 S5        30.20R
MEEKER         CLEAR     53  49  86 CALM      30.21R
MOUNT WERNER   NOT AVBL
STEAMBOAT SPGS   N/A     54  53  98 CALM      30.21S
WALDEN         CLOUDY    50  46  87 E6        30.26F
$$

COZ006>008-011-040700-
...WEST CENTRAL VALLEYS...

CITY           SKY/WX    TMP DP  RH WIND       PRES   REMARKS
GRAND JUNCTION MOCLDY    70  48  45 W5        30.11R
MONTROSE       PTCLDY    65  48  54 SE12      30.18S
EAGLE          PTCLDY    57  48  72 E7        30.21S
RIFLE          PTCLDY    61  56  83 SE3       30.13R
DELTA          MOCLDY    70  54  55 E5        30.12S
NUCLA          MOCLDY    63  52  67 NW8       30.27R
$$

COZ017>023-064>068-040700-
...SOUTHWEST COLORADO...

CITY           SKY/WX    TMP DP  RH WIND       PRES   REMARKS
DURANGO        CLEAR     58  41  53 N8        30.23F
CORTEZ         CLEAR     58  48  69 N5        30.18R
PAGOSA SPRINGS CLEAR     53  45  72 CALM      30.32S
TELLURIDE      PTCLDY    50  41  73 SE7       30.44F
WOLF CREEK PAS NOT AVBL
$$

COZ009-010-012-014-032>034-037-058>063-040700-
...CENTRAL COLORADO...

CITY           SKY/WX    TMP DP  RH WIND       PRES   REMARKS
ASPEN          PTCLDY    52  45  77 S6        30.28F
BUENA VISTA    PTCLDY    52  45  77 CALM      30.31R
COPPER MTN     CLEAR     48  32  53 W20       30.55F
BERTHOUD PASS  FAIR      39  30  70 W20G26    30.58R
COTTONWOOD PAS PTCLDY    55  41  58 N5        30.42R
GUNNISON       CLEAR     55  48  76 N3        30.33S
KREMMLING      PTCLDY    50  41  71 E5        30.24S
LEADVILLE      PTCLDY    50  36  58 NE7       30.41S
MONARCH PASS   CLEAR     45  37  76 W28       30.66S
SALIDA         PTCLDY    58  50  74 SE7       30.35S
SUNLIGHT       PTCLDY    48  45  87 CALM      30.48S
WILKERSON PASS NOT AVBL
$$

COZ069>075-040700-
...SAN LUIS VALLEY/SANGRE DE CRISTO MOUNTAINS...

CITY           SKY/WX    TMP DP  RH WIND       PRES   REMARKS
ALAMOSA        CLEAR     51  48  89 SE5       30.28R
LA VETA PASS   PTCLDY    46  45  93 MISG      30.47S
SAGUACHE       CLEAR     52  46  82 NW7       30.31S
$$

COZ035-036-038>040-040700-
...NORTHERN COLORADO FRONT RANGE...

CITY           SKY/WX    TMP DP  RH WIND       PRES   REMARKS
DENVER INTL AP MOCLDY    66  52  60 SW12      30.07S
DMNS CITY PARK   N/A     64  54  70 S10       30.07S
AURORA         PTCLDY    63  53  67 S13       30.10S
FRONT RANGE AP MOCLDY    61  52  72 MISG      30.09S
ERIE MUNI ARPT PTCLDY    65  54  67 CALM      30.07R
BOULDER MUN AP PTCLDY    66  52  59 W3        30.08R
CENTENNIAL     PTCLDY    64  50  60 SW13      30.11S
BROOMFIELD     PTCLDY    64  52  63 NW5       30.10R
FORT COLLINS   MOCLDY    61  55  82 NW5       30.06F
LONGMONT       MOCLDY    68  54  60 N7        30.08S
$$

COZ041-046-047-076>085-087-088-040700-
...PIKES PEAK/PALMER DIVIDE AND SOUTHERN FOOTHILLS...

CITY           SKY/WX    TMP DP  RH WIND       PRES   REMARKS
COLO. SPRINGS  PTCLDY    59  55  87 NW8       30.18S
A. F. ACADEMY  PTCLDY    55  55  99 N8        30.19S
ELLICOTT       PTCLDY   N/A N/A N/A SW8       30.16S
FALCON         PTCLDY    59  53  83 W8        30.22S
FORT CARSON    PTCLDY    59  55  84 VRB7      30.14F
LIMON          CLOUDY    58  55  90 CALM      30.11F
MONUMENT HILL  PTCLDY    55  50  82 SW10      30.21S
TRINIDAD       PTCLDY    61  55  81 N8        30.17R
$$

COZ042>045-048>051-090-091-040700-
...NORTHEAST COLORADO...

CITY           SKY/WX    TMP DP  RH WIND       PRES   REMARKS
GREELEY ARPT   MOCLDY    64  54  68 NE9       30.05F
AKRON          PTCLDY    62  47  57 S6        30.06S
BURLINGTON     MOCLDY    66  58  75 S6        30.05S
WRAY           CLEAR     61  53  75 SW6       30.03R
STERLING       PTCLDY    61  54  77 S5        30.01F
HOLYOKE        CLEAR     63  55  77 SW3       30.01S
FORT MORGAN    PTCLDY    60  48  64 W7        30.06S
$$

COZ086-089-092>099-040700-
...SOUTHEAST COLORADO...

CITY           SKY/WX    TMP DP  RH WIND       PRES   REMARKS
PUEBLO         PTCLDY    61  56  83 W8        30.11R
LA JUNTA       LGT RAIN  61  58  90 W9        30.08F
LAMAR          MOCLDY    66  63  90 NW6       30.02S
SPRINGFIELD      N/A     66  61  84 S14       30.04F
$$



USA.gov is the U.S. government's official web portal to all federal, state and local government web resources and services.